This is the latest recevied weather packets stored in our database for station/object K2BIG. If no packets are shown the sender has not sent any weather packets the latest 10 day(s).
| Time | Temp. | Humidity | Pressure | Rain* | Wind** | Luminosity | Snow |
|---|---|---|---|---|---|---|---|
| 1777480216 | 18.33° C | 56% | 1013.5 hPa | 0 mm | - | - | - |
| 1777479915 | 17.78° C | 62% | 1013.6 hPa | 0 mm | - | - | - |
| 1777479615 | 17.78° C | 58% | 1013.7 hPa | 0 mm | - | - | - |
| 1777479315 | 17.78° C | 57% | 1013.8 hPa | 0 mm | - | - | - |
| 1777479016 | 17.78° C | 58% | 1013.8 hPa | 0 mm | - | - | - |
| 1777478715 | 17.78° C | 59% | 1013.8 hPa | 0 mm | - | - | - |
| 1777478415 | 17.78° C | 56% | 1013.7 hPa | 0 mm | - | - | - |
| 1777478115 | 17.78° C | 60% | 1013.9 hPa | 0 mm | - | - | - |
| 1777477815 | 17.22° C | 58% | 1013.8 hPa | 0 mm | - | - | - |
| 1777477515 | 17.22° C | 59% | 1013.9 hPa | 0 mm | - | - | - |
| 1777477215 | 17.22° C | 58% | 1013.9 hPa | 0 mm | - | - | - |
| 1777476915 | 17.22° C | 58% | 1014.1 hPa | 0 mm | - | - | - |
| 1777476615 | 17.22° C | 58% | 1014 hPa | 0 mm | - | - | - |
| 1777476315 | 17.22° C | 57% | 1014.1 hPa | 0 mm | - | - | - |
| 1777476015 | 17.22° C | 57% | 1014.1 hPa | 0 mm | - | - | - |
| 1777475715 | 17.22° C | 58% | 1014.1 hPa | 0 mm | - | - | - |
| 1777475415 | 17.22° C | 56% | 1014.1 hPa | 0 mm | - | - | - |
| 1777475115 | 17.78° C | 56% | 1014.2 hPa | 0 mm | - | - | - |
| 1777474815 | 17.78° C | 54% | 1014.1 hPa | 0 mm | - | - | - |
| 1777474515 | 17.78° C | 54% | 1014.2 hPa | 0 mm | - | - | - |
| 1777474215 | 17.78° C | 55% | 1014.2 hPa | 0 mm | - | - | - |
| 1777473916 | 18.33° C | 54% | 1014.1 hPa | 0 mm | - | - | - |
| 1777473615 | 18.33° C | 54% | 1014.2 hPa | 0 mm | - | - | - |
| 1777473315 | 17.78° C | 54% | 1014.2 hPa | 0 mm | - | - | - |
| 1777473015 | 18.33° C | 55% | 1014.1 hPa | 0 mm | - | - | - |
* Rain latest hour (hover to see other rain measurements)
** Current wind speed in m/s (hover to see current wind gust speed)